Regional Weather Roundup
Issued by NWS

Home | Current Version | Previous Version | Graphics & Text | Print | Product List | Glossary On
Versions: 1 2 3 4 5 6 7 8 9 10 11 12 13 14 15 16 17 18 19 20 21 22 23 24 25 26 27 28 29 30 31 32 33 34 35 36 37 38 39 40 41 42 43 44 45 46 47 48 49 50
000
ASUS43 KOAX 210702
RWRNE

WEATHER ROUNDUP FOR NEBRASKA
NATIONAL WEATHER SERVICE OMAHA NE
100 AM CST TUE NOV 21 2017

NOTES: SATELLITE DATA IS BEING USED TO AUGMENT CLOUD COVER ABOVE
       12000 FEET.
       "FAIR" INDICATES FEW OR NO CLOUDS BELOW 12,000 FEET WITH NO
       SIGNIFICANT WEATHER AND/OR OBSTRUCTIONS TO VISIBILITY.


NEZ001>004-019>022-054>056-210800-
NEBRASKA PANHANDLE

CITY           SKY/WX    TMP DP  RH WIND       PRES   REMARKS
SCOTTSBLUFF    CLOUDY    53  24  32 W18G29    29.82R
ALLIANCE       MOCLDY    47  27  45 N9        29.80R
CHADRON        PTCLDY    39  25  57 NE14      29.85R WCI  31
GORDON         FAIR      39  26  58 NE13      29.83R WCI  32
KIMBALL        CLOUDY    47  14  26 W16       29.86R
SIDNEY         CLOUDY    48  16  27 W12       29.84R
$$

NEZ057>060-069>072-079>082-210800-
SOUTHWEST NEBRASKA

CITY           SKY/WX    TMP DP  RH WIND       PRES   REMARKS
NORTH PLATTE   MOCLDY    35  27  72 W3        29.80R
IMPERIAL       CLOUDY    49  21  33 W7        29.81R
LEXINGTON      PTCLDY    35  27  70 W5        29.78F WCI  31
MCCOOK         PTCLDY    50  26  39 N18       29.76F
OGALLALA       CLOUDY    50  22  33 W3        29.80R
$$

NEZ005>010-023>029-035>040-094-210800-
NORTH CENTRAL NEBRASKA

CITY           SKY/WX    TMP DP  RH WIND       PRES   REMARKS
VALENTINE      CLOUDY    45  26  47 N13       29.83R
AINSWORTH      CLOUDY    41  25  54 N8        29.80R
BROKEN BOW     PTCLDY    36  23  59 S5        29.77S WCI  32
O`NEILL        CLOUDY    42  26  53 N9        29.79R
ORD            CLOUDY    33  25  72 NW9       29.76R WCI  25
THEDFORD       CLOUDY    34  26  70 W5        29.80R WCI  30
$$

NEZ041-046>049-061>064-073>077-083>087-210800-
SOUTH CENTRAL NEBRASKA

CITY           SKY/WX    TMP DP  RH WIND       PRES   REMARKS
GRAND ISLAND   CLOUDY    34  26  72 W9        29.76R WCI  27
AURORA         CLEAR     35  23  61 NW5       29.75S WCI  31
HASTINGS       CLOUDY    37  23  56 N3        29.76R
HEBRON         PTCLDY    37  27  68 CALM      29.75R
HOLDREGE       CLOUDY    44  27  51 NW5       29.77F
KEARNEY        CLOUDY    40  25  55 NW7       29.77S
YORK           CLOUDY    36  25  64 CALM      29.75S
$$

NEZ011>018-030>034-042>045-210800-
NORTHEAST NEBRASKA

CITY           SKY/WX    TMP DP  RH WIND       PRES   REMARKS
NORFOLK        CLOUDY    39  25  57 NW9       29.74R WCI  33
ALBION         PTCLDY    34  25  71 N8        29.75S WCI  27
BLAIR          CLOUDY    44  28  54 NW6       29.71R
COLUMBUS       CLEAR     29  23  78 W5        29.75R WCI  24
FREMONT        CLOUDY    33  27  79 CALM      29.72S
TEKAMAH        CLOUDY    32  23  69 CALM      29.72R
WAYNE          CLOUDY    43  23  45 NW12      29.74R
$$

NEZ050>053-065>068-078-088>093-210800-
SOUTHEAST NEBRASKA

CITY           SKY/WX    TMP DP  RH WIND       PRES   REMARKS
LINCOLN        CLOUDY    33  26  75 SW3       29.75R
OMAHA EPPLEY   CLOUDY    38  28  67 CALM      29.72R
BEATRICE       CLOUDY    31  25  78 CALM      29.73R
FALLS CITY     CLOUDY    47  28  47 CALM      29.71S
NEBRASKA CITY  PTCLDY    43  29  58 W9        29.72R
PLATTSMOUTH    CLOUDY    40  29  65 NW5       29.72R
$$

NEZ044-045-051>053-067-210800-
OMAHA AREA

CITY           SKY/WX    TMP DP  RH WIND       PRES   REMARKS
OMAHA EPPLEY   CLOUDY    38  28  67 CALM      29.72R
BLAIR          CLOUDY    44  28  54 NW6       29.71R
FREMONT        CLOUDY    33  27  79 CALM      29.72S
MILLARD        CLOUDY    39  30  71 CALM      29.73R
OFFUTT AFB     CLOUDY    39  28  64 CALM      29.71R
PLATTSMOUTH    CLOUDY    40  29  65 NW5       29.72R
WAHOO          FAIR      41  26  54 NW9       29.72R
$$




USA.gov is the U.S. government's official web portal to all federal, state and local government web resources and services.